Weather Roundup
Issued by NWS Chicago, IL

Home | Current Version | Previous Version | Graphics & Text | Print | Product List | Glossary On
Versions: 1 2 3 4 5 6 7 8 9 10 11 12 13 14 15 16 17 18 19 20 21 22 23 24 25 26 27 28 29 30 31 32 33 34 35 36 37 38 39 40 41 42 43 44 45 46 47 48 49 50
000
NZUS59 KLOT 051308
HRRLOT

CHICAGO AREA WEATHER ROUNDUP
NATIONAL WEATHER SERVICE CHICAGO/ROMEOVILLE IL
800 AM CDT SAT SEP 05 2015

NOTE: "FAIR" INDICATES FEW OR NO CLOUDS BELOW 12,000 FEET WITH NO
SIGNIFICANT WEATHER AND/OR OBSTRUCTIONS TO VISIBILITY.

* THESE STATIONS ARE NOT UNDER NWS QUALITY CONTROL. THEY ALSO MAY NOT
  REPORT WEATHER SUCH AS PRECIPITATION OR FOG.

ILZ005-006-012>014-019>023-051400-
NORTHEAST ILLINOIS

CITY           SKY/WX    TMP DP  RH WIND       PRES   REMARKS
OHARE          PTSUNNY   73  67  81 SW6       30.09R
MIDWAY         PTSUNNY   74  65  73 SW8       30.09R
AURORA         PTSUNNY   72  68  87 SE5       30.10R
LANSING*       PTSUNNY   70  65  85 SW9       30.11R
JOLIET*          N/A     72  68  88 S5        30.12R
WAUKEGAN       CLOUDY    69  69 100 CALM      30.10R FOG
DUPAGE AIRPORT MOSUNNY   72  67  84 S5        30.10R
WHEELING       NOT AVBL
KANKAKEE*      CLOUDY    69  69  99 SE8       30.13R
MORRIS*        PTSUNNY   71  67  85 S6        30.11R
LEWIS AIRPORT* MOSUNNY   72  67  84 S9        30.11R
NORTHERLY IS     N/A     73  64  73 S3          N/A
$$

WIZ051-052-058>065-066-070>072-051400-
SOUTHEAST WISCONSIN

CITY           SKY/WX    TMP DP  RH WIND       PRES   REMARKS
MILWAUKEE      CLOUDY    68  67  96 SE3       30.09R FOG
KENOSHA*       CLOUDY    68  67  96 CALM      30.10R FOG
RACINE*        CLOUDY    69  66  90 S3        30.11R
BURLINGTON     FOG       65  65  99 CALM      30.10R VSB 1
WAUKESHA       FOG       64  64 100 SE3       30.12R VSB 1
WEST BEND      PTSUNNY   64  63  94 CALM      30.11R
$$

INZ001>003-010>013-019-020-051400-
NORTHWEST INDIANA

CITY           SKY/WX    TMP DP  RH WIND       PRES   REMARKS
GARY*          PTSUNNY   73  64  73 S5        30.11R
MICHIGAN CITY* NOT AVBL
RENSSELAER*    NOT AVBL
VALPARAISO     MOSUNNY   71  66  84 S9        30.13R
$$

LMZ740>746-051400-
SOUTHERN LAKE MICHIGAN

STATION/POSITION TIME  SKY/WX   TEMP WIND        PRES    VSBY
                                AIR  DIR/SP/G
                 (UTC)          (F)  (DEG/KT/KT) (MB)    (MI)
HARRISON CRIB    1200            71  190/ 13/ 15   N/A
BURNHAM HARBOR   1300            73   CALM  / 10   N/A
CALUMET HARBOR   1200            72  190/  6/  8   N/A
BURNS HARBOR     1200            70  190/ 11/ 15 1019.6R
MICHIGAN CITY    1200            71  150/ 11/ 14   N/A
$$

ABBREVIATIONS USED IN REMARKS
   TC - TEMPERATURE IN CELSIUS
  WCI - WIND CHILL INDEX
   HX - HEAT INDEX
  VSB - VISIBILITY
$$


USA.gov is the U.S. government's official web portal to all federal, state and local government web resources and services.